Temperature
31 32 32 32 33 33 32 32 32 31 31 31 30 30 30 28 28 27 27 26 25 24 23 22 22 21 21 20 20 20 20 19 19 19 19 18 18 18 18 18 18 18 18 17
31 32 32 33 32 32 32 32 32 31 31 31 31 30 30 29 28 28 27 26 26 25 24 23 22 21 21 20 20 20 20 20 19 19 19 18 18 18 18 18 18 18 17 17
32 32 32 32 31 31 32 32 32 31 30 31 31 30 30 30 28 28 27 27 26 25 24 23 22 22 21 21 21 20 20 20 20 19 19 18 18 18 18 18 18 18 17 17
32 32 31 31 31 32 31 32 32 31 31 31 31 31 31 30 30 29 28 27 26 26 25 24 23 22 21 21 21 21 21 20 20 19 19 18 18 18 18 18 18 18 18 17
31 31 31 31 32 32 32 32 31 31 31 32 31 31 32 31 30 30 29 28 27 26 25 24 23 22 22 21 21 21 21 21 20 20 19 19 18 18 18 18 18 18 17 17
31 31 32 32 32 32 31 31 31 31 32 31 31 31 31 32 31 31 30 28 27 26 25 24 23 23 22 21 21 21 21 21 20 20 19 19 19 18 18 18 18 18 18 17
30 31 31 31 31 31 31 31 30 30 30 31 31 31 31 32 31 31 30 29 28 27 26 25 24 23 22 22 21 21 21 21 21 20 20 19 19 18 18 18 18 18 18 17
30 30 31 31 31 31 31 32 30 30 30 31 30 31 32 31 31 30 29 29 28 27 26 25 24 23 22 22 21 21 21 21 21 20 20 20 19 18 18 18 18 17 17 17
31 30 31 31 31 32 31 32 33 32 31 31 31 31 31 31 30 30 30 29 28 27 26 25 24 24 23 22 22 21 21 21 21 20 20 19 19 19 18 18 18 17 17 17
31 30 30 30 31 30 32 32 31 31 30 30 31 31 31 30 30 30 30 29 28 27 26 25 24 23 23 22 22 21 21 21 21 20 20 19 19 19 19 18 18 18 18 18
30 30 30 30 30 31 30 31 31 31 31 30 30 31 32 31 31 30 30 29 28 27 26 25 24 23 23 22 22 21 21 21 20 20 20 19 19 19 19 18 18 18 18 18
29 30 29 30 30 30 31 31 31 30 29 30 31 31 31 31 30 30 29 28 27 26 26 25 24 23 23 22 22 21 21 21 20 20 20 20 19 19 19 18 18 18 18 18
28 28 28 29 29 29 30 30 31 31 30 30 30 31 31 30 30 29 28 27 26 25 25 24 23 22 22 22 21 21 21 20 20 20 20 20 20 19 19 19 18 18 18 18
27 28 28 29 29 30 29 29 30 30 30 30 30 31 30 30 30 29 27 26 26 25 24 23 22 22 22 21 21 21 21 21 20 20 20 20 20 19 19 19 18 18 18 18
27 27 28 29 29 29 29 29 29 29 30 30 30 30 30 30 29 28 27 26 25 24 23 22 22 22 21 21 21 21 21 20 20 20 20 20 20 19 19 19 18 18 18 18
26 26 27 27 28 28 28 29 29 29 30 30 30 30 30 29 28 27 26 26 25 24 23 22 22 21 21 21 21 21 20 20 20 20 20 20 19 19 19 18 18 18 18 18
26 26 26 27 28 27 27 28 29 29 29 30 29 30 29 29 28 27 26 25 25 24 23 22 21 21 21 21 21 21 20 20 20 20 20 20 19 19 19 18 18 18 18 18
25 25 26 27 26 25 28 29 29 29 29 29 29 29 29 28 27 26 25 25 24 24 23 22 21 21 21 20 21 20 20 20 20 19 19 20 19 19 19 18 18 18 18 18
24 24 25 26 26 26 27 27 28 28 28 29 28 28 27 26 26 26 24 24 23 23 22 22 21 21 20 20 20 20 20 20 20 19 19 19 19 19 18 18 18 18 18 18
23 23 25 25 25 25 27 27 26 27 26 27 27 27 26 26 27 27 24 23 23 22 22 21 21 20 20 20 20 20 20 19 19 19 19 19 19 18 18 18 18 17 17 17
23 23 24 24 25 26 26 26 25 25 26 25 25 25 25 25 26 24 23 22 22 21 21 21 20 20 20 20 20 20 19 19 19 19 19 18 18 18 18 18 18 17 17 17
24 24 23 24 24 25 25 25 25 24 23 23 24 24 24 23 23 22 22 21 21 21 21 21 20 20 20 20 19 19 19 19 19 19 19 18 18 18 18 18 18 17 17 16
23 24 25 24 24 23 23 23 22 21 22 22 22 22 22 22 22 21 21 21 21 20 20 20 20 20 20 19 19 19 19 19 18 18 18 18 18 18 17 17 17 17 16 16
21 20 22 22 23 22 21 21 21 21 21 21 21 21 21 21 21 20 20 20 20 20 20 19 19 19 19 19 19 19 19 18 18 18 18 18 17 17 17 17 16 16 16 16
21 21 21 21 22 21 21 20 20 20 20 20 20 20 20 20 20 20 19 19 19 19 19 19 19 19 19 19 18 18 18 17 17 17 17 17 17 17 17 16 16 16 16 16
21 21 21 22 21 21 20 20 19 19 19 19 19 19 19 19 19 19 19 19 18 18 18 18 18 18 18 18 18 17 17 17 17 17 17 16 16 16 16 16 16 16 15 15
Wind_Speed
7 8 9 9 6 3 5 4 5 5 5 6 4 4 7 9 9 9 8 8 8 7 7 7 7 7 7 7 6 6 5 5 4 3 2 2 2 1 2 2 3 2 2 2
9 9 7 6 6 5 6 5 5 5 5 5 4 4 5 8 10 9 9 8 8 8 8 8 7 7 8 8 7 7 6 5 5 3 2 1 1 1 1 2 2 1 1 1
10 7 7 8 9 8 7 5 4 5 5 6 5 5 6 8 9 9 9 9 8 8 9 9 8 8 8 8 8 7 6 5 5 4 3 3 2 2 2 2 1 1 1 1
8 6 8 10 10 9 7 4 5 6 7 4 5 2 5 7 8 10 10 10 9 9 9 9 9 9 9 9 8 8 7 6 5 5 4 4 2 1 1 0 1 1 1 1
8 9 10 11 9 9 4 4 5 7 7 5 5 5 3 7 6 8 10 11 11 10 10 9 9 9 9 8 8 8 8 7 6 5 5 4 3 2 1 1 2 0 1 1
7 7 8 8 7 7 6 6 6 7 8 7 5 6 2 4 4 6 8 10 11 11 11 10 9 9 9 8 8 9 9 7 7 6 5 4 3 2 1 1 1 1 1 0
9 9 7 7 9 9 10 9 7 7 7 5 4 6 2 2 3 4 7 9 10 11 11 11 10 10 10 10 10 9 9 8 7 7 6 5 4 4 3 2 1 1 0 0
13 12 10 9 9 9 13 12 8 6 6 5 6 5 2 2 2 4 6 8 9 11 11 11 11 11 10 10 10 10 9 8 8 7 6 5 5 4 3 2 1 1 1 1
10 10 9 7 7 8 11 12 10 8 7 6 5 5 4 4 4 5 7 8 9 10 10 10 10 11 10 10 10 10 10 9 8 7 7 6 5 4 3 3 3 2 1 1
6 8 9 7 7 5 8 9 8 9 8 8 7 7 5 6 6 7 7 7 8 9 9 9 9 9 9 10 10 9 9 9 8 8 7 6 6 5 5 4 3 2 1 1
8 9 9 10 10 11 9 10 9 8 8 9 7 4 2 4 4 6 7 7 7 8 9 9 8 9 9 9 10 10 9 9 8 8 7 6 6 6 5 4 4 3 3 2
7 8 9 11 6 5 10 10 11 10 8 9 9 4 4 3 3 4 5 6 7 8 8 8 8 9 9 9 9 9 9 9 8 8 7 7 6 6 5 5 4 4 4 3
6 7 10 11 10 9 9 10 11 10 9 10 11 6 5 4 3 3 4 5 6 7 8 8 8 8 8 8 8 8 8 8 8 8 8 7 7 6 6 6 5 5 4 4
6 8 12 13 9 10 11 11 11 12 11 11 12 8 5 4 3 3 4 5 7 8 8 8 8 7 7 7 8 8 8 8 8 8 8 8 8 7 7 6 5 5 5 4
6 10 10 8 6 8 11 12 13 14 13 12 10 10 7 4 3 3 5 6 7 8 8 8 7 7 7 7 7 7 7 7 7 8 8 7 7 7 6 6 6 6 5 5
6 8 9 10 8 9 12 13 14 14 13 13 11 10 5 4 3 4 5 6 7 7 7 7 7 7 7 7 7 7 7 7 7 8 7 7 7 7 7 7 7 7 6 6
8 8 10 12 10 10 15 15 15 14 13 13 13 9 5 5 5 5 6 6 6 6 7 7 7 7 7 7 7 7 7 7 8 8 7 7 7 7 8 8 8 8 7 7
8 9 9 11 10 15 10 6 10 13 13 12 10 7 6 6 5 4 4 5 6 6 6 6 6 7 6 6 6 6 6 7 7 7 7 7 7 7 7 8 8 8 8 7
8 10 10 11 14 13 8 7 9 10 11 10 10 8 6 5 5 5 3 4 4 5 5 6 6 7 6 6 6 6 6 7 7 7 6 6 7 7 7 7 8 7 7 7
7 9 11 12 14 14 8 6 5 7 11 7 8 7 6 6 8 4 2 3 3 4 4 5 6 6 6 6 6 7 7 6 6 6 6 6 6 7 7 6 6 6 7 7
11 10 14 14 14 11 4 5 7 10 5 3 5 5 6 6 5 1 1 1 3 4 4 5 5 6 6 6 6 7 6 6 6 5 5 5 6 6 7 6 6 6 6 6
11 11 12 12 14 10 5 7 7 2 1 2 3 3 4 4 3 2 2 1 2 3 4 5 5 5 6 6 6 6 6 5 5 6 6 6 6 6 5 6 6 6 6 6
8 6 7 7 6 1 2 2 1 1 2 2 2 3 3 4 4 3 3 2 2 2 3 4 5 5 5 6 6 6 6 5 6 6 6 6 6 6 6 6 7 7 7 7
5 3 5 5 5 4 3 3 3 2 3 3 3 4 4 4 5 4 4 3 3 3 3 4 5 5 6 6 7 6 6 6 6 7 7 7 6 6 6 6 7 7 7 7
4 5 6 8 6 4 4 3 3 3 3 4 4 5 5 5 6 5 5 4 4 4 3 4 5 6 7 7 7 7 6 7 7 8 7 7 7 7 6 6 5 7 5 5
6 7 8 6 4 5 4 3 3 3 4 5 5 6 6 6 6 6 6 5 5 5 4 5 6 6 7 7 7 7 8 8 8 8 8 7 6 6 6 6 5 2 3 4
Wind_Direction
185 196 188 183 200 170 166 167 149 134 154 190 192 180 169 178 191 193 191 190 192 194 181 180 185 185 180 181 183 187 189 181 191 192 194 164 145 126 109 112 95 94 90 94
188 198 192 185 193 192 188 186 167 146 157 197 191 199 185 185 196 201 199 198 197 194 188 185 187 189 188 186 188 189 190 189 195 183 183 169 120 122 115 87 89 82 81 75
202 175 175 189 189 197 202 205 193 174 173 201 211 194 184 184 198 201 203 200 195 193 190 187 189 192 191 188 189 189 186 186 192 191 186 169 167 189 156 148 138 83 59 60
206 177 186 198 199 208 204 212 215 192 200 193 226 212 164 180 193 200 204 202 199 192 188 187 186 189 191 189 185 184 182 183 185 191 197 199 202 186 134 158 113 104 68 31
193 189 196 205 206 214 213 189 209 212 224 231 216 249 154 166 187 194 199 201 200 193 189 188 188 187 189 185 181 178 176 178 182 192 195 207 213 207 166 142 121 141 97 29
191 188 210 211 202 200 168 173 192 220 235 232 229 250 199 169 196 191 188 192 195 192 189 188 187 184 186 183 182 177 171 175 180 189 195 201 204 207 201 191 180 208 147 88
190 189 187 192 183 182 198 207 208 211 217 219 203 240 230 130 177 196 186 183 184 186 187 187 187 185 186 184 183 180 172 174 178 182 187 188 194 198 200 223 196 251 281 92
198 193 188 196 207 200 211 225 237 241 230 208 194 229 199 152 176 189 185 181 181 183 184 187 186 185 185 182 181 180 176 177 177 179 181 186 197 206 198 196 240 227 289 8
209 198 174 191 212 219 209 227 242 248 252 251 214 207 202 180 179 179 176 176 181 181 180 183 184 184 183 180 180 181 177 177 179 180 179 184 192 206 204 192 211 221 215 198
222 204 182 181 193 211 237 222 223 236 243 243 230 226 221 192 196 188 179 175 172 174 174 174 175 176 178 179 176 177 177 178 181 183 188 184 188 194 200 203 196 208 212 217
223 213 190 191 209 207 202 213 229 235 249 253 247 233 177 198 201 195 187 176 173 176 172 169 169 170 171 174 173 174 177 181 183 187 186 190 188 187 193 196 196 194 202 203
217 223 209 204 201 248 224 224 221 229 233 251 262 247 117 159 186 192 190 178 173 173 168 165 166 166 169 173 176 179 181 184 186 186 186 190 191 187 188 193 196 196 199 203
199 219 210 204 200 202 216 218 227 235 241 244 249 234 136 147 165 178 183 174 169 172 166 161 164 165 170 175 179 182 185 187 186 184 185 184 187 188 191 194 196 195 195 201
226 224 233 231 220 203 210 214 220 229 237 240 244 246 205 197 202 184 180 177 171 170 167 165 166 169 171 175 179 183 185 186 184 185 188 187 190 192 195 193 194 198 195 196
221 223 230 244 245 228 224 220 218 229 242 249 250 247 243 236 227 198 185 181 174 174 174 172 173 173 175 176 179 184 184 182 184 187 190 192 193 191 193 194 195 196 197 197
216 224 223 228 228 231 234 229 227 231 238 244 249 249 247 233 213 190 185 184 181 181 180 177 175 175 181 182 183 183 184 183 184 190 191 191 193 192 194 197 195 194 196 196
204 212 224 229 220 229 234 229 227 231 235 240 242 242 225 224 215 211 199 194 193 189 182 180 179 180 185 184 184 185 182 183 188 192 192 193 197 201 201 200 197 197 194 192
214 219 225 229 215 233 235 220 228 233 237 238 245 237 229 232 223 217 213 202 200 196 189 186 185 181 181 180 179 181 175 180 185 191 194 196 199 206 205 203 201 200 197 195
217 216 225 227 228 235 223 215 218 227 235 231 232 229 222 219 219 208 207 204 203 200 192 187 187 181 175 176 175 174 176 180 185 191 196 199 201 203 204 208 205 202 201 202
199 217 225 226 234 234 218 185 211 233 236 219 221 221 216 219 234 213 184 198 198 197 190 184 183 179 172 172 171 175 179 183 188 190 194 194 198 205 207 208 206 200 203 208
191 205 222 228 234 239 205 175 192 224 233 182 215 223 223 228 264 307 342 206 198 195 191 185 184 182 179 175 176 184 186 193 195 194 194 194 196 202 205 200 199 201 204 209
208 208 214 224 231 228 164 190 215 263 36 201 226 242 244 246 252 248 276 263 212 199 197 191 189 190 184 183 188 195 199 199 195 193 197 199 201 208 200 195 197 201 200 205
227 240 227 227 233 150 164 219 257 285 252 256 262 271 262 251 249 264 272 271 249 226 211 202 200 197 193 197 202 208 208 199 197 198 200 203 204 208 206 201 200 201 205 214
205 243 235 229 221 223 226 234 245 252 257 268 279 287 278 265 265 271 275 271 262 250 228 215 211 210 209 211 215 218 209 203 203 207 208 206 205 208 207 207 210 210 212 217
225 212 223 229 228 232 227 236 245 257 273 279 284 286 282 279 277 274 272 267 260 259 245 232 227 225 223 218 217 218 210 206 209 213 214 213 214 210 207 212 219 222 222 223
228 232 237 240 229 247 236 244 256 259 268 282 287 285 281 277 276 275 273 262 255 257 251 244 241 237 234 227 222 218 213 210 211 215 218 220 218 208 212 209 212 185 214 158
Height
1498 1496 1496 1494 1493 1493 1496 1500 1504 1505 1506 1509 1510 1512 1514 1519 1522 1524 1527 1529 1531 1533 1536 1537 1538 1540 1541 1541 1542 1543 1544 1545 1545 1547 1548 1548 1549 1549 1549 1549 1548 1548 1549 1549
1497 1496 1492 1493 1495 1496 1498 1502 1504 1505 1507 1508 1509 1510 1511 1515 1519 1521 1524 1526 1529 1531 1533 1535 1537 1538 1539 1540 1541 1542 1543 1544 1545 1546 1547 1547 1548 1549 1549 1549 1548 1549 1549 1549
1492 1492 1494 1496 1498 1500 1499 1501 1503 1506 1507 1506 1508 1511 1509 1512 1516 1519 1522 1524 1526 1528 1531 1533 1535 1536 1538 1539 1540 1542 1543 1544 1544 1545 1547 1548 1548 1549 1549 1549 1549 1549 1549 1549
1491 1493 1496 1496 1498 1498 1503 1498 1500 1504 1508 1507 1507 1514 1507 1507 1511 1515 1518 1521 1523 1526 1528 1531 1533 1534 1536 1538 1539 1540 1541 1542 1543 1545 1546 1547 1548 1549 1549 1549 1549 1549 1548 1549
1492 1493 1495 1497 1495 1496 1498 1498 1500 1501 1503 1505 1505 1509 1505 1503 1507 1509 1513 1517 1520 1523 1526 1528 1531 1533 1535 1537 1538 1539 1540 1541 1542 1544 1545 1546 1547 1548 1549 1548 1548 1548 1548 1548
1489 1492 1492 1492 1494 1496 1498 1501 1502 1501 1500 1514 1507 1510 1509 1499 1503 1504 1508 1513 1516 1520 1523 1526 1529 1531 1533 1535 1537 1538 1538 1540 1541 1542 1543 1544 1546 1546 1547 1547 1548 1548 1548 1547
1494 1492 1492 1493 1495 1498 1499 1504 1513 1517 1516 1514 1503 1507 1505 1496 1499 1502 1505 1509 1513 1517 1520 1523 1526 1528 1530 1532 1534 1536 1537 1538 1539 1541 1542 1543 1544 1545 1545 1546 1547 1547 1547 1547
1496 1498 1491 1491 1492 1495 1496 1496 1511 1521 1518 1508 1505 1507 1498 1495 1499 1502 1504 1507 1511 1514 1518 1521 1523 1526 1528 1530 1532 1534 1535 1536 1538 1539 1540 1542 1542 1544 1545 1545 1546 1546 1546 1546
1488 1492 1488 1490 1490 1490 1495 1494 1489 1499 1503 1508 1502 1500 1496 1496 1498 1500 1503 1506 1509 1512 1515 1518 1521 1523 1526 1528 1530 1532 1533 1534 1536 1538 1539 1540 1541 1542 1544 1544 1544 1545 1544 1544
1483 1492 1489 1491 1492 1492 1489 1488 1495 1500 1516 1518 1508 1503 1499 1497 1497 1498 1501 1504 1507 1511 1514 1517 1519 1521 1524 1526 1528 1530 1531 1533 1535 1536 1538 1539 1540 1541 1542 1542 1543 1543 1543 1543
1482 1490 1492 1491 1493 1490 1493 1493 1493 1494 1498 1509 1514 1504 1486 1491 1494 1496 1499 1503 1506 1509 1512 1515 1517 1520 1522 1524 1527 1528 1530 1531 1533 1534 1536 1537 1538 1539 1540 1541 1541 1541 1541 1541
1485 1485 1490 1489 1488 1488 1487 1488 1492 1502 1506 1502 1503 1501 1485 1490 1493 1496 1498 1502 1505 1508 1511 1513 1516 1518 1520 1522 1524 1526 1528 1530 1531 1533 1534 1536 1537 1538 1539 1539 1540 1540 1540 1540
1487 1489 1499 1498 1496 1491 1490 1488 1488 1490 1495 1499 1503 1500 1487 1491 1493 1496 1498 1501 1504 1507 1509 1511 1514 1516 1518 1520 1522 1524 1526 1528 1529 1531 1532 1534 1535 1536 1536 1537 1538 1538 1538 1539
1488 1487 1491 1494 1487 1485 1490 1490 1489 1491 1496 1496 1495 1492 1488 1490 1492 1496 1498 1501 1503 1506 1508 1509 1511 1514 1516 1518 1520 1522 1524 1526 1527 1528 1530 1531 1532 1533 1535 1535 1535 1536 1536 1537
1487 1488 1486 1484 1482 1482 1485 1487 1488 1489 1487 1490 1488 1488 1486 1488 1492 1495 1498 1500 1502 1505 1507 1508 1510 1512 1514 1516 1518 1520 1522 1523 1525 1526 1527 1529 1530 1531 1532 1532 1533 1533 1534 1535
1487 1488 1488 1489 1485 1484 1486 1484 1485 1486 1485 1486 1486 1487 1485 1489 1492 1495 1497 1499 1500 1503 1505 1507 1508 1510 1511 1513 1515 1517 1519 1521 1522 1523 1525 1526 1527 1528 1529 1529 1530 1531 1531 1532
1485 1489 1492 1489 1485 1488 1491 1482 1483 1483 1481 1482 1485 1484 1485 1488 1491 1494 1496 1498 1499 1501 1503 1505 1506 1508 1509 1511 1513 1515 1516 1518 1519 1521 1522 1523 1524 1525 1526 1527 1527 1528 1529 1529
1488 1489 1488 1487 1493 1503 1481 1475 1477 1479 1479 1479 1480 1482 1485 1488 1491 1494 1496 1497 1498 1500 1501 1503 1504 1506 1507 1509 1510 1512 1513 1515 1516 1518 1519 1519 1520 1521 1522 1523 1524 1525 1526 1526
1487 1488 1487 1487 1491 1486 1480 1478 1478 1480 1480 1478 1480 1483 1486 1488 1490 1492 1494 1495 1496 1498 1499 1501 1502 1504 1505 1506 1508 1509 1510 1512 1513 1514 1515 1516 1517 1518 1519 1520 1520 1521 1522 1523
1487 1487 1486 1487 1491 1490 1477 1475 1479 1481 1483 1479 1481 1483 1486 1487 1486 1487 1492 1493 1494 1496 1497 1499 1500 1502 1503 1504 1505 1506 1507 1509 1510 1511 1512 1513 1514 1515 1515 1516 1516 1517 1518 1519
1484 1487 1485 1485 1486 1476 1473 1476 1480 1487 1481 1480 1481 1483 1485 1486 1486 1489 1490 1491 1492 1493 1495 1496 1497 1499 1499 1500 1502 1503 1504 1505 1507 1508 1509 1510 1510 1511 1512 1513 1513 1514 1515 1516
1477 1479 1484 1482 1485 1481 1475 1477 1479 1480 1481 1482 1482 1484 1485 1486 1487 1488 1489 1489 1490 1491 1492 1493 1494 1495 1496 1497 1499 1500 1501 1502 1503 1504 1505 1506 1507 1508 1509 1509 1510 1510 1511 1512
1474 1473 1470 1475 1477 1476 1478 1479 1481 1482 1482 1482 1483 1484 1485 1485 1486 1486 1487 1488 1488 1489 1489 1490 1491 1492 1493 1494 1495 1496 1497 1499 1500 1501 1502 1503 1504 1504 1505 1505 1506 1507 1508 1508
1476 1478 1475 1476 1475 1478 1479 1480 1481 1482 1482 1483 1483 1484 1484 1484 1484 1484 1485 1485 1485 1486 1486 1487 1487 1488 1489 1490 1492 1493 1494 1495 1496 1497 1498 1499 1499 1500 1501 1502 1503 1504 1505 1506
1474 1476 1474 1475 1476 1478 1478 1480 1481 1481 1481 1481 1481 1482 1482 1482 1482 1482 1482 1482 1482 1483 1483 1483 1483 1484 1485 1486 1487 1489 1490 1491 1492 1493 1494 1495 1495 1496 1497 1498 1499 1500 1501 1502
1475 1475 1474 1471 1475 1476 1477 1479 1479 1480 1480 1480 1480 1479 1480 1480 1479 1479 1479 1478 1478 1479 1479 1479 1480 1480 1481 1482 1483 1484 1485 1486 1487 1488 1489 1491 1492 1492 1492 1493 1494 1494 1496 1496